Location: Quebec
(46.8000°N, 71.2500°W)
Time: 20:05:23
(UTC-04:00)

Envisat - Pass Details

Date: 09 October 2017
Orbit: 764 x 766 km, 98.2° (Epoch: 18 October)

Event Time Altitude Azimuth Distance (km) Brightness Sun altitude
Exits shadow 20:04:27 40° 128° (SE) 1,114 3.4 -20.5°
Maximum altitude 20:06:01 59° 71° (ENE) 887 3.0 -20.8°
Drops below altitude 10° 20:11:01 10° 353° (N) 2,313 5.7 -21.6°
Sets 20:13:21 0° 350° (N) 3,243 6.6 -22.0°
